Weather History for Douglas Bisbee, AZ

Change the Weather History Date:

Monday, January 14, 2013

  Actual Average Record
Temperature  
Mean Temperature 26 °F 46 °F  
Max Temperature 41 °F 63 °F 77 °F (1980)
Min Temperature 11 °F 30 °F 11 °F (1964)
Degree Days  
Heating Degree Days 39 19  
Month to date heating degree days 400 268  
Since 1 July heating degree days 1284 1292  
Cooling Degree Days 0 0  
Month to date cooling degree days 0 0  
Year to date cooling degree days 0 0  
Moisture  
Dew Point 2 °F    
Average Humidity 41    
Maximum Humidity 63    
Minimum Humidity 18    
Precipitation  
Precipitation 0.00 in 0.03 in 0.48 in (1955)
Month to date precipitation T 0.33  
Year to date precipitation T 0.33  
Snow  
Snow 0.00 in - - ()
Month to date snowfall 0.0  
Snow Depth 0.00 in    
Sea Level Pressure  
Sea Level Pressure 30.07 in    
Wind  
Wind Speed 7 mph (NW)    
Max Wind Speed 18 mph    
Max Gust Speed 22 mph    
Visibility 10 miles    
Events      
T = Trace of Precipitation, MM = Missing Value Source: NWS Daily Summary

Daily Weather History Graph

Daily Weather History Graph

Search for Another Location

Airport:

Trip Planner

Search our weather history database for the weather conditions in past years. The results will help you decide how hot, cold, wet, or windy it might be!

Date:

Astronomy

Jan. 14, 2013 Rise Set
Actual Time 7:18 AM MST 5:37 PM MST
Civil Twilight 6:51 AM MST 6:03 PM MST
Nautical Twilight 6:22 AM MST 6:33 PM MST
Astronomical Twilight 5:52 AM MST 7:02 PM MST
Moon 9:08 AM MST (1/14) 9:09 PM MST (1/14)
Length of Visible Light 11h 11m
Length of Day
10h 19m
Waxing Crescent, 12% of the Moon is Illuminated
Jan 14
Waxing Crescent
Jan 18
First Quarter
Jan 26
Full
Feb 3
Last Quarter
Feb 10
New

Hourly Weather History & Observations

Time (MST) Temp. Windchill Dew Point Humidity Pressure Visibility Wind Dir Wind Speed Gust Speed Precip Events Conditions
12:56 AM 17.1 °F 5.8 °F -0.0 °F 47% 30.00 in 10.0 mi North 9.2 mph - N/A   Clear
1:56 AM 19.0 °F 11.1 °F -0.0 °F 43% 30.02 in 10.0 mi North 5.8 mph - N/A   Clear
2:56 AM 17.1 °F 7.6 °F 1.0 °F 50% 30.02 in 10.0 mi NE 6.9 mph - N/A   Clear
3:56 AM 14.0 °F 8.2 °F 1.0 °F 56% 30.04 in 10.0 mi West 3.5 mph - N/A   Clear
4:56 AM 12.9 °F - -0.0 °F 56% 30.02 in 10.0 mi Calm Calm - N/A   Clear
5:56 AM 10.9 °F - -0.9 °F 59% 30.05 in 10.0 mi Calm Calm - N/A   Clear
6:56 AM 12.0 °F - -0.0 °F 59% 30.09 in 10.0 mi Calm Calm - N/A   Clear
7:56 AM 16.0 °F - 1.9 °F 54% 30.10 in 10.0 mi Calm Calm - N/A   Clear
8:56 AM 21.0 °F - 3.9 °F 48% 30.11 in 10.0 mi Calm Calm - N/A   Clear
9:56 AM 30.0 °F 26.5 °F 6.1 °F 36% 30.09 in 10.0 mi Variable 3.5 mph - N/A   Clear
10:56 AM 35.1 °F 28.6 °F 3.0 °F 26% 30.08 in 10.0 mi NW 8.1 mph - N/A   Clear
11:56 AM 37.4 °F 32.8 °F 3.2 °F 24% 30.03 in 10.0 mi SW 5.8 mph - N/A   Clear
12:56 PM 37.9 °F 30.0 °F 3.0 °F 23% 30.04 in 10.0 mi West 12.7 mph 16.1 mph N/A   Clear
1:56 PM 37.9 °F 34.4 °F 1.9 °F 22% 30.02 in 10.0 mi Variable 4.6 mph - N/A   Clear
2:56 PM 39.9 °F 35.8 °F 1.0 °F 20% 30.03 in 10.0 mi Variable 5.8 mph 16.1 mph N/A   Partly Cloudy
3:56 PM 41.0 °F 33.9 °F 1.9 °F 20% 30.04 in 10.0 mi SW 12.7 mph - N/A   Partly Cloudy
4:56 PM 39.0 °F 31.0 °F -0.0 °F 19% 30.06 in 10.0 mi SW 13.8 mph - N/A   Scattered Clouds
5:56 PM 32.0 °F 26.4 °F 1.0 °F 27% 30.09 in 10.0 mi WNW 5.8 mph - N/A   Clear
6:56 PM 28.9 °F 19.2 °F 1.9 °F 32% 30.11 in 10.0 mi NW 11.5 mph - N/A   Clear
7:56 PM 26.1 °F 16.2 °F 1.9 °F 35% 30.13 in 10.0 mi North 10.4 mph - N/A   Clear
8:56 PM 23.0 °F 13.1 °F 1.0 °F 39% 30.14 in 10.0 mi North 9.2 mph - N/A   Clear
9:56 PM 25.0 °F 13.1 °F 1.0 °F 36% 30.12 in 10.0 mi NNW 13.8 mph - N/A   Clear
10:56 PM 21.9 °F 9.2 °F 1.0 °F 40% 30.12 in 10.0 mi NW 13.8 mph - N/A   Clear
11:56 PM 19.9 °F 8.6 °F 1.9 °F 46% 30.13 in 10.0 mi NNW 10.4 mph - N/A   Clear